Alexandria, Egypt

1:22 PM EET on April 26, 2018 (GMT +0200)
Alexandria

Weather History for HEAX - March, 2012

Change the Weather History Date:

Friday, March 16, 2012

  Actual Average Record
Temperature  
Mean Temperature 60 °F -  
Max Temperature 65 °F 70 °F 80 °F (2014)
Min Temperature 53 °F 54 °F 48 °F (2006)
Degree Days  
Heating Degree Days 5    
Growing Degree Days 10 (Base 50)    
Moisture  
Dew Point 46 °F    
Average Humidity 60    
Maximum Humidity 67    
Minimum Humidity 44    
Precipitation  
Precipitation 0.00 in 0.01 in - ()
Sea Level Pressure  
Sea Level Pressure 30.20 in    
Wind  
Wind Speed 12 mph ()    
Max Wind Speed 20 mph    
Max Gust Speed -    
Visibility 6.2 miles    
Events      
Averages and records for this station are not official NWS values.
T = Trace of Precipitation, MM = Missing Value Source: Averaged Metar Reports

Daily Weather History Graph

Daily Weather History Graph

Search for Another Location

Airport or City:

Astronomy

Mar. 16, 2012 Rise Set
Actual Time 6:08 AM EET 6:09 PM EET
Civil Twilight 5:44 AM EET 6:33 PM EET
Nautical Twilight 5:16 AM EET 7:01 PM EET
Astronomical Twilight 4:48 AM EET 7:29 PM EET
Moon 1:50 AM EET (3/16) 12:28 PM EET (3/16)
Length of Visible Light 12h 48m
Length of Day
12h 00m
Waning Crescent, 35% of the Moon is Illuminated
Mar 16
Waning Crescent
Mar 22
New
Mar 30
First Quarter
Apr 6
Full
Apr 13
Last Quarter

Hourly Weather History & Observations

Time (EET) Temp. Dew Point Humidity Pressure Visibility Wind Dir Wind Speed Gust Speed Precip Events Conditions
12:00 AM 57.2 °F 46.4 °F 67% 30.15 in 6.2 mi NW 11.5 mph - N/A   Scattered Clouds
1:00 AM 57.2 °F 46.4 °F 67% 30.15 in 6.2 mi WNW 11.5 mph - N/A   Scattered Clouds
2:00 AM 58 °F 46 °F 56% 30.17 in 6 mi WNW 11.5 mph - -   Partly Cloudy
2:00 AM 57.2 °F 46.4 °F 67% 30.15 in 6.2 mi WNW 11.5 mph - N/A   Scattered Clouds
3:00 AM 57.2 °F 46.4 °F 67% 30.15 in 6.2 mi WNW 13.8 mph - N/A   Scattered Clouds
4:00 AM 57.2 °F 46.4 °F 67% 30.15 in 6.2 mi WNW 11.5 mph - N/A   Scattered Clouds
5:00 AM 57.2 °F 46.4 °F 67% 30.15 in 6.2 mi NW 11.5 mph - N/A   Scattered Clouds
6:00 AM 57.2 °F 46.4 °F 67% 30.15 in 6.2 mi WNW 11.5 mph - N/A   Scattered Clouds
7:00 AM 57.2 °F 46.4 °F 67% 30.15 in 6.2 mi NW 11.5 mph - N/A   Scattered Clouds
8:00 AM 59 °F 45 °F 50% 30.18 in 6 mi NW 13.8 mph - -   Partly Cloudy
8:00 AM 59.0 °F 44.6 °F 59% 30.18 in 6.2 mi NW 13.8 mph - N/A   Scattered Clouds
9:00 AM 60.8 °F 46.4 °F 59% 30.18 in 6.2 mi WNW 9.2 mph - N/A   Scattered Clouds
10:00 AM 62.6 °F 48.2 °F 59% 30.21 in 6.2 mi WNW 13.8 mph - N/A   Scattered Clouds
11:00 AM 60.8 °F 48.2 °F 63% 30.21 in 6.2 mi WNW 13.8 mph - N/A   Scattered Clouds
12:00 PM 64.4 °F 48.2 °F 56% 30.21 in 6.2 mi NW 17.3 mph - N/A   Scattered Clouds
1:00 PM 64.4 °F 50.0 °F 59% 30.21 in 6.2 mi NW 17.3 mph - N/A   Scattered Clouds
2:00 PM 65 °F 48 °F 44% 30.21 in 6 mi NW 18.4 mph - -   Partly Cloudy
2:00 PM 64.4 °F 48.2 °F 56% 30.27 in 6.2 mi NW 18.4 mph - N/A   Scattered Clouds
3:00 PM 64.4 °F 46.4 °F 52% 30.21 in 6.2 mi NNW 19.6 mph - N/A   Scattered Clouds
4:00 PM 62.6 °F 44.6 °F 52% 30.21 in 6.2 mi NNW 16.1 mph - N/A   Partly Cloudy
5:00 PM 60.8 °F 46.4 °F 59% 30.21 in 6.2 mi NW 15.0 mph - N/A   Scattered Clouds
6:00 PM 59.0 °F 44.6 °F 59% 30.24 in 6.2 mi NNW 17.3 mph - N/A   Scattered Clouds
7:00 PM 57.2 °F 42.8 °F 59% 30.24 in 6.2 mi NNW 19.6 mph - N/A   Scattered Clouds
8:00 PM 56 °F 43 °F 51% 30.25 in 6 mi NW 18.4 mph - -   Partly Cloudy
8:00 PM 57.2 °F 42.8 °F 59% 30.24 in 6.2 mi NW 18.4 mph - N/A   Scattered Clouds
9:00 PM 55.4 °F 42.8 °F 63% 30.27 in 6.2 mi NNW 16.1 mph - N/A   Scattered Clouds
10:00 PM 55.4 °F 41.0 °F 58% 30.30 in 6.2 mi North 15.0 mph - N/A   Scattered Clouds
11:00 PM 53.6 °F 41.0 °F 62% 30.27 in 6.2 mi North 13.8 mph - N/A   Scattered Clouds